Weatherford, Texas, United States (76085)
Lat: 32.76N, Lon: 97.8W
Wx Zone: TXZ117
Local Info
Past Weather Observations for Saturday, January 24, 2015

NOTE: This archive is for the closest National Weather Service station to Weatherford. Information may differ from the station used for current weather conditions.

Click here for Long-term Archive

Time Weather Temperature Dewpoint Humidity Pressure Winds Precip Visibility
23:53
Clear
39°F / 4°C 34°F / 1°C 81% 30.01 in
(1016 mb)
Calm - 10SM
22:53
Clear
39°F / 4°C 34°F / 1°C 81% 30.01 in
(1016 mb)
SSE 3.5 mph
(SSE 6 kph)
- 10SM
21:53
Clear
43°F / 6°C 34°F / 1°C 71% 30.01 in
(1016 mb)
SSE 4.6 mph
(SSE 7 kph)
- 10SM
20:53
Clear
48°F / 9°C 36°F / 2°C 62% 30.01 in
(1016 mb)
SW 3.5 mph
(SW 6 kph)
- 10SM
19:53
Clear
48°F / 9°C 36°F / 2°C 62% 30.04 in
(1017 mb)
SW 9.2 mph
(SW 15 kph)
- 10SM
18:53
Clear
50°F / 10°C 37°F / 3°C 62% 30.04 in
(1017 mb)
SW 9.2 mph
(SW 15 kph)
- 10SM
17:53
Clear
54°F / 12°C 37°F / 3°C 54% 30.04 in
(1017 mb)
SW 6.9 mph
(SW 11 kph)
- 10SM
16:53
Clear
59°F / 15°C 36°F / 2°C 42% 30.04 in
(1017 mb)
SSW 9.2 mph
(SSW 15 kph)
- 10SM
15:53
Clear
59°F / 15°C 36°F / 2°C 42% 30.06 in
(1018 mb)
SSW 9.2 mph
(SSW 15 kph)
- 10SM
14:53
Clear
57°F / 14°C 34°F / 1°C 41% 30.09 in
(1019 mb)
SSW 8.1 mph
(SSW 13 kph)
- 10SM
13:53
Clear
55°F / 13°C 34°F / 1°C 44% 30.09 in
(1019 mb)
Variable 6.9 mph
(Variable 11 kph)
- 10SM
12:53
Clear
54°F / 12°C 34°F / 1°C 47% 30.15 in
(1021 mb)
SSW 8.1 mph
(SSW 13 kph)
- 10SM
11:53
Clear
50°F / 10°C 34°F / 1°C 54% 30.18 in
(1022 mb)
SSW 8.1 mph
(SSW 13 kph)
- 10SM
10:53
Clear
46°F / 8°C 32°F / 0°C 57% 30.21 in
(1023 mb)
NNW 8.1 mph
(NNW 13 kph)
- 10SM
09:53
Clear
43°F / 6°C 30°F / -1°C 61% 30.21 in
(1023 mb)
W 9.2 mph
(W 15 kph)
- 10SM
08:53
Clear
37°F / 3°C 30°F / -1°C 75% 30.18 in
(1022 mb)
SSW 5.8 mph
(SSW 9 kph)
- 10SM
07:53
Clear
34°F / 1°C 28°F / -2°C 81% 30.18 in
(1022 mb)
WNW 5.8 mph
(WNW 9 kph)
- 10SM
06:53
Clear
34°F / 1°C 27°F / -3°C 75% 30.18 in
(1022 mb)
W 5.8 mph
(W 9 kph)
- 10SM
05:53
Clear
34°F / 1°C 27°F / -3°C 75% 30.15 in
(1021 mb)
W 6.9 mph
(W 11 kph)
- 10SM
04:53
Clear
34°F / 1°C 27°F / -3°C 75% 30.15 in
(1021 mb)
WNW 6.9 mph
(WNW 11 kph)
- 10SM
03:53
Clear
34°F / 1°C 28°F / -2°C 81% 30.15 in
(1021 mb)
NW 3.5 mph
(NW 6 kph)
- 10SM
02:53
Clear
34°F / 1°C 28°F / -2°C 81% 30.18 in
(1022 mb)
SSW 6.9 mph
(SSW 11 kph)
- 10SM
01:53
Clear
36°F / 2°C 30°F / -1°C 81% 30.18 in
(1022 mb)
W 6.9 mph
(W 11 kph)
- 10SM
00:53
Clear
36°F / 2°C 30°F / -1°C 81% 30.18 in
(1022 mb)
SSW 5.8 mph
(SSW 9 kph)
- 10SM
Time Weather Temperature Dewpoint Humidity Pressure Winds Precip Visibility


Weather for websites

WeatherForYou.com, LLC is not responsible for any damages or problems caused by this service. Current weather conditions are obtained from the closest station including government and personal stations which may have varying degrees of accuracy. Weather forecasts are derived from the NOAA NDFD. Like all things, this site belongs to Jesus Christ... He just trusts me to maintain it. If you have any questions or comments email webmaster@weatherforyou.com

Copyright © 2015, WeatherForYou.com LLC. All rights reserved.